Location: Bettgenhausen
(50.6463°N, 7.5681°E)
Time: 06:15:18
(UTC+00:00)

Cosmos 372 Rocket - Pass Details

Date: 27 February 2020
Orbit: 738 x 768 km, 74.1° (Epoch: 28 March)

Event Time Altitude Azimuth Distance (km) Brightness Sun altitude
Rises 18:28:33 0° 338° (NNW) 3,251 7.6 -13.7°
Reaches altitude 10° 18:31:04 10° 345° (NNW) 2,319 6.7 -14.1°
Maximum altitude 18:36:06 44° 58° (ENE) 1,057 4.4 -14.9°
Enters shadow 18:39:09 22° 119° (ESE) 1,640 5.2 -15.4°
